Weather History for KY19 - November, 2012

Change the Weather History Date:

Wednesday, November 7, 2012

  Actual Average (KBIS) Record (KBIS)
Temperature  
Mean Temperature 42 °F 34 °F  
Max Temperature 55 °F 45 °F 79 °F (1999)
Min Temperature 30 °F 23 °F -15 °F (1991)
Degree Days  
Heating Degree Days 22 31  
Month to date heating degree days 207  
Since 1 July heating degree days 1119  
Cooling Degree Days 0 0  
Month to date cooling degree days 0  
Year to date cooling degree days 520  
Moisture  
Dew Point 31 °F    
Average Humidity 72    
Maximum Humidity 100    
Minimum Humidity 38    
Precipitation  
Precipitation 0.00 in 0.03 in 1.13 in (1874)
Month to date precipitation 0.20  
Year to date precipitation 16.85  
Snow  
Snow 0.00 in 0.20 in 9.00 in (1986)
Month to date snowfall 1.6  
Since 1 July snowfall 4.0  
Since 1 September snowfall 4.0  
Snow Depth -    
Sea Level Pressure  
Sea Level Pressure 29.87 in    
Wind  
Wind Speed 7 mph (South)    
Max Wind Speed 21 mph    
Max Gust Speed 29 mph    
Visibility 10 miles    
Events      
T = Trace of Precipitation, MM = Missing Value Source: NWS Daily Summary

Daily Weather History Graph

Daily Weather History Graph

Search for Another Location

Airport or City:

Trip Planner

Search our weather history database for the weather conditions in past years. The results will help you decide how hot, cold, wet, or windy it might be!

Date:

Astronomy

Nov. 07, 2012 Rise Set
Actual Time 7:35 AM CST 5:18 PM CST
Civil Twilight 7:03 AM CST 5:50 PM CST
Nautical Twilight 6:26 AM CST 6:27 PM CST
Astronomical Twilight 5:51 AM CST 7:02 PM CST
Moon 12:05 AM CST (11/7) 1:51 PM CST (11/7)
Length of Visible Light 10h 47m
Length of Day
9h 43m
Last Quarter, 43% of the Moon is Illuminated
Nov 7
Last Quarter
Nov 13
New
Nov 20
First Quarter
Nov 28
Full
Dec 6
Last Quarter

Hourly Weather History & Observations

Time (CST) Temp. Windchill Dew Point Humidity Pressure Visibility Wind Dir Wind Speed Gust Speed Precip Events Conditions
12:15 AM 32.0 °F 28.7 °F 28.4 °F 87% 30.08 in 10.0 mi WNW 3.5 mph - N/A   Clear
12:35 AM 32.0 °F 28.7 °F 28.4 °F 87% 30.08 in 10.0 mi NW 3.5 mph - N/A   Clear
12:55 AM 32.0 °F - 28.4 °F 87% 30.09 in 10.0 mi Calm Calm - N/A   Clear
1:15 AM 32.0 °F - 28.4 °F 87% 30.08 in 10.0 mi Calm Calm - N/A   Clear
1:35 AM 32.0 °F - 28.4 °F 87% 30.08 in 10.0 mi Calm Calm - N/A   Clear
1:55 AM 33.8 °F - 28.4 °F 81% 30.08 in 10.0 mi Calm Calm - N/A   Clear
2:15 AM 32.0 °F - 28.4 °F 87% 30.08 in 10.0 mi Calm Calm - N/A   Clear
2:55 AM 32.0 °F 27.5 °F 28.4 °F 87% 30.06 in 10.0 mi SSE 4.6 mph - N/A   Clear
3:15 AM 30.2 °F 23.4 °F 28.4 °F 93% 30.05 in 10.0 mi SE 6.9 mph - N/A   Scattered Clouds
3:35 AM 30.2 °F 24.3 °F 30.2 °F 100% 30.05 in 10.0 mi SSE 5.8 mph - N/A   Overcast
3:55 AM 32.0 °F 26.4 °F 30.2 °F 93% 30.04 in 10.0 mi SSE 5.8 mph - N/A   Overcast
4:35 AM 32.0 °F 26.4 °F 32.0 °F 100% 30.03 in 10.0 mi SE 5.8 mph - N/A   Overcast
4:55 AM 32.0 °F 25.6 °F 32.0 °F 100% 30.03 in 10.0 mi SSE 6.9 mph - N/A   Overcast
5:15 AM 32.0 °F 24.8 °F 32.0 °F 100% 30.02 in 10.0 mi SE 8.1 mph - N/A   Overcast
5:35 AM 30.2 °F 22.6 °F 30.2 °F 100% 30.02 in 10.0 mi SSE 8.1 mph - N/A   Overcast
5:55 AM 30.2 °F 22.6 °F 30.2 °F 100% 30.03 in 10.0 mi SSE 8.1 mph - N/A   Mostly Cloudy
6:15 AM 32.0 °F 24.2 °F 32.0 °F 100% 30.01 in 10.0 mi South 9.2 mph - N/A   Scattered Clouds
6:35 AM 32.0 °F 24.8 °F 32.0 °F 100% 30.01 in 10.0 mi SSE 8.1 mph - N/A   Scattered Clouds
6:55 AM 32.0 °F 25.6 °F 30.2 °F 93% 30.00 in 10.0 mi SE 6.9 mph - N/A   Partly Cloudy
7:35 AM 32.0 °F 24.2 °F 32.0 °F 100% 29.99 in 10.0 mi SE 9.2 mph - N/A   Clear
7:55 AM 32.0 °F 23.6 °F 32.0 °F 100% 29.98 in 10.0 mi SE 10.4 mph - N/A   Scattered Clouds
8:15 AM 32.0 °F 23.0 °F 32.0 °F 100% 29.97 in 10.0 mi SSE 11.5 mph - N/A   Scattered Clouds
8:35 AM 33.8 °F 24.8 °F 32.0 °F 93% 29.96 in 10.0 mi SSE 12.7 mph - N/A   Scattered Clouds
8:55 AM 35.6 °F 27.5 °F 32.0 °F 87% 29.97 in 10.0 mi SE 11.5 mph - N/A   Partly Cloudy
9:15 AM 37.4 °F 28.5 °F 32.0 °F 81% 29.95 in 10.0 mi SSE 15.0 mph - N/A   Clear
9:35 AM 37.4 °F 27.8 °F 32.0 °F 81% 29.95 in 10.0 mi SSE 17.3 mph - N/A   Clear
3:15 PM 53.6 °F - 30.2 °F 41% 29.75 in 10.0 mi SSE 17.3 mph 27.6 mph N/A   Unknown
3:35 PM 53.6 °F - 30.2 °F 41% 29.74 in 10.0 mi South 20.7 mph 25.3 mph N/A   Clear
3:55 PM 55.4 °F - 30.2 °F 38% 29.73 in 10.0 mi South 19.6 mph 28.8 mph N/A   Clear
4:15 PM 53.6 °F - 30.2 °F 41% 29.72 in 10.0 mi South 19.6 mph 27.6 mph N/A   Clear
4:35 PM 53.6 °F - 28.4 °F 38% 29.72 in 10.0 mi South 17.3 mph 25.3 mph N/A   Clear
4:55 PM 53.6 °F - 28.4 °F 38% 29.71 in 10.0 mi SSE 16.1 mph - N/A   Clear
5:15 PM 51.8 °F - 30.2 °F 44% 29.71 in 10.0 mi SSE 13.8 mph 19.6 mph N/A   Clear
5:35 PM 51.8 °F - 30.2 °F 44% 29.71 in 10.0 mi SSE 11.5 mph - N/A   Clear
5:55 PM 50.0 °F - 30.2 °F 47% 29.73 in 10.0 mi South 11.5 mph - N/A   Clear
6:15 PM 50.0 °F - 30.2 °F 47% 29.72 in 10.0 mi South 12.7 mph - N/A   Clear
6:35 PM 50.0 °F - 32.0 °F 50% 29.72 in 10.0 mi South 12.7 mph - N/A   Clear
6:55 PM 48.2 °F - 32.0 °F 54% 29.72 in 10.0 mi South 12.7 mph - N/A   Clear
7:15 PM 48.2 °F - 32.0 °F 54% 29.72 in 10.0 mi South 10.4 mph - N/A   Clear
7:35 PM 48.2 °F - 32.0 °F 54% 29.71 in 10.0 mi South 13.8 mph - N/A   Clear
7:55 PM 48.2 °F - 32.0 °F 54% 29.71 in 10.0 mi South 12.7 mph - N/A   Clear
8:15 PM 50.0 °F - 32.0 °F 50% 29.71 in 10.0 mi South 11.5 mph - N/A   Clear
8:35 PM 48.2 °F - 32.0 °F 54% 29.71 in 10.0 mi South 11.5 mph - N/A   Clear
8:55 PM 48.2 °F - 32.0 °F 54% 29.71 in 10.0 mi South 12.7 mph - N/A   Clear
9:15 PM 46.4 °F 41.9 °F 32.0 °F 57% 29.71 in 10.0 mi South 9.2 mph - N/A   Clear
9:35 PM 46.4 °F 41.5 °F 32.0 °F 57% 29.72 in 10.0 mi South 10.4 mph - N/A   Clear
9:55 PM 46.4 °F 41.9 °F 30.2 °F 53% 29.73 in 10.0 mi South 9.2 mph - N/A   Clear
10:15 PM 46.4 °F 41.9 °F 32.0 °F 57% 29.72 in 10.0 mi South 9.2 mph - N/A   Clear
10:35 PM 44.6 °F 39.7 °F 32.0 °F 61% 29.72 in 10.0 mi SSW 9.2 mph - N/A   Clear
10:55 PM 44.6 °F - 32.0 °F 61% 29.73 in 10.0 mi Calm Calm - N/A   Clear
11:15 PM 42.8 °F 37.0 °F 32.0 °F 66% 29.76 in 10.0 mi NW 10.4 mph - N/A   Clear
11:35 PM 41.0 °F 36.4 °F 32.0 °F 70% 29.74 in 10.0 mi WNW 6.9 mph - N/A   Clear
11:55 PM 42.8 °F 38.6 °F 32.0 °F 66% 29.75 in 10.0 mi NW 6.9 mph - N/A   Clear